Location: Grand Canyon Star Party (South Rim)
(36.0641°N, 112.1172°W)
Time: 13:58:18
(UTC-07:00)

Hubble Space Telescope - Visible Passes

Search period start: 20 January 2018 00:00
Search period end: 30 January 2018 00:00
Orbit: 537 x 541 km, 28.5° (Epoch: 20 January)

Date Brightness Start Highest point End Pass type
(mag) Time Alt. Az. Time Alt. Az. Time Alt. Az.
22 Jan 3.6 20:18:43 10° SW 20:19:17 13° SW 20:19:17 13° SW visible
23 Jan 3.2 18:29:32 10° S 18:31:00 12° SSE 18:32:27 10° SE visible
23 Jan 3.1 20:08:15 10° SW 20:09:42 17° SSW 20:09:42 17° SSW visible
24 Jan 3.1 18:18:26 10° SSW 18:20:37 14° SSE 18:22:48 10° SE visible
24 Jan 2.7 19:57:49 10° SW 20:00:05 22° SSW 20:00:05 22° SSW visible
25 Jan 2.3 19:47:25 10° SW 19:50:28 26° S 19:50:28 26° S visible
26 Jan 2.1 19:37:04 10° WSW 19:40:36 28° S 19:40:52 28° S visible
27 Jan 2.1 19:26:44 10° WSW 19:30:16 28° S 19:31:17 25° SSE visible
28 Jan 2.3 19:16:26 10° WSW 19:19:57 27° S 19:21:43 20° SE visible
29 Jan 2.4 19:06:10 10° WSW 19:09:38 26° S 19:12:12 15° SE visible
